| time (UTC) | temp F | wind direction | speed knots | gust knots | rain 1hr in | rain 24hr in | rain mn in | humidity % | barometer mb |
| 20260504192819 | 72 | 50 | 0.9 | 0.9 | 0.00 | 0.00 | 0.00 | 32 | 1005.9 |
| 20260504192317 | 72 | 218 | 0.9 | 3.5 | 0.00 | 0.00 | 0.00 | 33 | 1005.8 |
| 20260504191815 | 71 | 328 | 1.7 | 2.6 | 0.00 | 0.00 | 0.00 | 32 | 1005.7 |
| 20260504191313 | 71 | 302 | 1.7 | 3.5 | 0.00 | 0.00 | 0.00 | 36 | 1005.8 |
| 20260504190808 | 70 | 306 | 0.9 | 2.6 | 0.00 | 0.00 | 0.00 | 35 | 1006.1 |
| 20260504190304 | 70 | 305 | 1.7 | 5.2 | 0.00 | 0.00 | 0.00 | 33 | 1005.8 |
| 20260504185801 | 70 | 212 | 1.7 | 3.5 | 0.00 | 0.00 | 0.00 | 34 | 1005.7 |
| 20260504185258 | 71 | 70 | 0.9 | 2.6 | 0.00 | 0.00 | 0.00 | 33 | 1005.9 |
| 20260504184754 | 72 | 314 | 3.5 | 5.2 | 0.00 | 0.00 | 0.00 | 33 | 1006.0 |
| 20260504184250 | 71 | 278 | 2.6 | 6.1 | 0.00 | 0.00 | 0.00 | 34 | 1005.8 |
| 20260504183746 | 70 | 93 | 0.9 | 2.6 | 0.00 | 0.00 | 0.00 | 33 | 1005.8 |
| 20260504183243 | 69 | 167 | 1.7 | 3.5 | 0.00 | 0.00 | 0.00 | 35 | 1005.9 |
| 20260504182741 | 68 | 293 | 0.0 | 2.6 | 0.00 | 0.00 | 0.00 | 36 | 1006.1 |
| 20260504182238 | 68 | 261 | 0.9 | 1.7 | 0.00 | 0.00 | 0.00 | 38 | 1006.1 |
| 20260504181735 | 68 | 182 | 0.9 | 2.6 | 0.00 | 0.00 | 0.00 | 35 | 1005.9 |
| 20260504181232 | 67 | 215 | 0.0 | 2.6 | 0.00 | 0.00 | 0.00 | 36 | 1006.1 |
| 20260504180731 | 67 | 292 | 0.9 | 1.7 | 0.00 | 0.00 | 0.00 | 36 | 1006.1 |
| 20260504180230 | 67 | 183 | 1.7 | 3.5 | 0.00 | 0.00 | 0.00 | 37 | 1006.2 |
| 20260504175727 | 67 | 127 | 0.9 | 0.9 | 0.00 | 0.00 | 0.00 | 37 | 1006.3 |
| 20260504175224 | 68 | 174 | 2.6 | 3.5 | 0.00 | 0.00 | 0.00 | 37 | 1006.4 |
| 20260504174722 | 69 | 263 | 0.9 | 5.2 | 0.00 | 0.00 | 0.00 | 34 | 1006.3 |
| 20260504174220 | 70 | 151 | 0.9 | 7.0 | 0.00 | 0.00 | 0.00 | 34 | 1006.1 |
| 20260504173715 | 70 | 310 | 1.7 | 5.2 | 0.00 | 0.00 | 0.00 | 34 | 1006.4 |
| 20260504173213 | 70 | 193 | 2.6 | 6.1 | 0.00 | 0.00 | 0.00 | 37 | 1006.5 |
| 20260504172709 | 69 | 169 | 2.6 | 7.0 | 0.00 | 0.00 | 0.00 | 34 | 1006.5 |
| 20260504172206 | 68 | 329 | 3.5 | 7.0 | 0.00 | 0.00 | 0.00 | 35 | 1006.5 |
| 20260504171702 | 67 | 171 | 0.0 | 2.6 | 0.00 | 0.00 | 0.00 | 36 | 1006.4 |
| 20260504171159 | 68 | 117 | 0.9 | 3.5 | 0.00 | 0.00 | 0.00 | 35 | 1006.6 |
| 20260504170656 | 69 | 209 | 1.7 | 5.2 | 0.00 | 0.00 | 0.00 | 34 | 1006.4 |
| 20260504170154 | 70 | 149 | 1.7 | 3.5 | 0.00 | 0.00 | 0.00 | 34 | 1006.5 |
| 20260504160112 | 69 | 160 | 2.6 | 3.5 | 0.00 | 0.00 | 0.00 | 33 | 1006.6 |
| 20260504151044 | 66 | 272 | 0.0 | 5.2 | 0.00 | 0.00 | 0.00 | 36 | 1007.3 |
| 20260504150542 | 65 | 294 | 0.9 | 2.6 | 0.00 | 0.00 | 0.00 | 40 | 1007.3 |
| 20260504141008 | 62 | 175 | 0.9 | 5.2 | 0.00 | 0.00 | 0.00 | 42 | 1007.8 |
| 20260504140505 | 62 | 85 | 3.5 | 5.2 | 0.00 | 0.00 | 0.00 | 41 | 1008.1 |
| 20260504130424 | 58 | 308 | 0.0 | 1.7 | 0.00 | 0.00 | 0.00 | 46 | 1008.7 |
| 20260504110310 | 44 | 198 | 0.0 | 0.0 | 0.00 | 0.00 | 0.00 | 79 | 1009.4 |
| 20260504100229 | 43 | 182 | 0.0 | 0.0 | 0.00 | 0.00 | 0.00 | 82 | 1009.5 |
| 20260504081622 | 42 | 155 | 0.0 | 0.0 | 0.00 | 0.00 | 0.00 | 80 | 1009.4 |
| 20260504081118 | 41 | 215 | 0.0 | 0.0 | 0.00 | 0.00 | 0.00 | 76 | 1009.4 |
| 20260504080615 | 42 | 191 | 0.0 | 0.0 | 0.00 | 0.00 | 0.00 | 79 | 1009.2 |
| 20260504080111 | 42 | 146 | 0.0 | 0.9 | 0.00 | 0.00 | 0.00 | 77 | 1009.4 |
| 20260504050427 | 33 | 162 | 0.0 | 0.0 | 0.00 | 0.00 | 0.00 | 93 | 1009.5 |
| 20260504045919 | 0 | 0.0 | 0.0 | 0.00 | 0.00 | 0.00 | 1009.5 | ||
| 20260504045414 | 0 | 0.0 | 0.0 | 0.00 | 0.00 | 0.00 | 1009.6 | ||
| 20260504044911 | 0 | 0.0 | 0.0 | 0.00 | 0.00 | 0.00 | 1009.5 | ||
| 20260504044408 | 0 | 0.0 | 0.0 | 0.00 | 0.00 | 0.00 | 1009.6 | ||
| 20260504043906 | 32 | 177 | 0.0 | 0.0 | 0.00 | 0.00 | 0.00 | 94 | 1009.7 |
| 20260504043403 | 32 | 177 | 0.0 | 0.0 | 0.00 | 0.00 | 0.00 | 94 | 1009.7 |
| 20260504042900 | 32 | 167 | 0.0 | 0.0 | 0.00 | 0.00 | 0.00 | 94 | 1009.6 |
| 20260504042356 | 32 | 167 | 0.0 | 0.0 | 0.00 | 0.00 | 0.00 | 94 | 1009.5 |
| 20260504041853 | 32 | 167 | 0.0 | 0.0 | 0.00 | 0.00 | 0.00 | 94 | 1009.6 |
| 20260504041349 | 32 | 166 | 0.0 | 0.0 | 0.00 | 0.00 | 0.00 | 94 | 1009.6 |
| 20260504040845 | 32 | 167 | 0.0 | 0.0 | 0.00 | 0.00 | 0.00 | 94 | 1009.4 |
| 20260504040343 | 32 | 167 | 0.0 | 0.0 | 0.00 | 0.00 | 0.00 | 94 | 1009.5 |
| 20260504035838 | 33 | 167 | 0.0 | 0.0 | 0.00 | 0.00 | 0.00 | 93 | 1009.4 |
| 20260504035337 | 33 | 166 | 0.0 | 0.0 | 0.00 | 0.00 | 0.00 | 93 | 1009.5 |
| 20260504034833 | 33 | 166 | 0.0 | 0.0 | 0.00 | 0.00 | 0.00 | 93 | 1009.4 |
| 20260504034331 | 33 | 160 | 0.0 | 0.0 | 0.00 | 0.00 | 0.00 | 93 | 1009.7 |
| 20260504033827 | 33 | 166 | 0.0 | 0.0 | 0.00 | 0.00 | 0.00 | 92 | 1009.5 |
| 20260504033326 | 33 | 172 | 0.0 | 0.0 | 0.00 | 0.00 | 0.00 | 92 | 1009.5 |
| 20260504032821 | 33 | 169 | 0.0 | 0.0 | 0.00 | 0.00 | 0.00 | 92 | 1009.4 |
| 20260504032319 | 33 | 165 | 0.0 | 0.0 | 0.00 | 0.00 | 0.00 | 91 | 1009.3 |
| 20260504031816 | 33 | 165 | 0.0 | 0.0 | 0.00 | 0.00 | 0.00 | 91 | 1009.3 |
| 20260504031313 | 0 | 0.0 | 0.0 | 0.00 | 0.00 | 0.00 | 1009.4 | ||
| 20260504030809 | 34 | 171 | 0.0 | 0.0 | 0.00 | 0.00 | 0.00 | 90 | 1009.2 |
| 20260504030307 | 34 | 171 | 0.0 | 0.0 | 0.00 | 0.00 | 0.00 | 90 | 1009.3 |
| 20260504025803 | 34 | 187 | 0.0 | 0.0 | 0.00 | 0.00 | 0.00 | 89 | 1009.3 |
| 20260504025300 | 34 | 165 | 0.0 | 0.0 | 0.00 | 0.00 | 0.00 | 89 | 1009.5 |
| 20260504024756 | 34 | 165 | 0.0 | 0.0 | 0.00 | 0.00 | 0.00 | 89 | 1009.4 |
| 20260504024253 | 34 | 165 | 0.0 | 0.0 | 0.00 | 0.00 | 0.00 | 88 | 1009.3 |
| 20260504023750 | 35 | 165 | 0.0 | 0.0 | 0.00 | 0.00 | 0.00 | 88 | 1009.3 |
| 20260504023246 | 35 | 165 | 0.0 | 0.0 | 0.00 | 0.00 | 0.00 | 87 | 1009.5 |
| 20260504022742 | 0 | 0.0 | 0.0 | 0.00 | 0.00 | 0.00 | 1009.5 | ||
| 20260504022238 | 0 | 0.0 | 0.0 | 0.00 | 0.00 | 0.00 | 1009.3 | ||
| 20260504021735 | 36 | 182 | 0.0 | 0.0 | 0.00 | 0.00 | 0.00 | 85 | 1009.5 |
| 20260504021233 | 36 | 183 | 0.0 | 0.0 | 0.00 | 0.00 | 0.00 | 84 | 1009.5 |
| 20260504020730 | 36 | 183 | 0.0 | 0.0 | 0.00 | 0.00 | 0.00 | 85 | 1009.3 |
| 20260504020226 | 37 | 177 | 0.0 | 0.0 | 0.00 | 0.00 | 0.00 | 82 | 1009.4 |
| 20260504015722 | 37 | 177 | 0.0 | 0.0 | 0.00 | 0.00 | 0.00 | 82 | 1009.3 |
| 20260504015219 | 0 | 0.0 | 0.0 | 0.00 | 0.00 | 0.00 | 1009.3 | ||
| 20260504014714 | 38 | 223 | 0.0 | 0.0 | 0.00 | 0.00 | 0.00 | 79 | 1009.2 |
| 20260504014212 | 38 | 223 | 0.0 | 0.0 | 0.00 | 0.00 | 0.00 | 79 | 1009.1 |
| 20260504013709 | 38 | 216 | 0.0 | 0.0 | 0.00 | 0.00 | 0.00 | 77 | 1009.1 |
| 20260504013206 | 38 | 192 | 0.0 | 0.0 | 0.00 | 0.00 | 0.00 | 78 | 1009.1 |
| 20260504012703 | 39 | 216 | 0.0 | 0.0 | 0.00 | 0.00 | 0.00 | 76 | 1009.1 |
| 20260504012201 | 39 | 212 | 0.0 | 0.0 | 0.00 | 0.00 | 0.00 | 75 | 1009.1 |
| 20260504011658 | 39 | 170 | 0.0 | 0.0 | 0.00 | 0.00 | 0.00 | 73 | 1008.8 |
| 20260504011154 | 40 | 148 | 0.0 | 0.0 | 0.00 | 0.00 | 0.00 | 73 | 1008.7 |
| 20260504010650 | 40 | 159 | 0.0 | 0.0 | 0.00 | 0.00 | 0.00 | 72 | 1008.8 |
| 20260504010146 | 41 | 166 | 0.0 | 0.0 | 0.00 | 0.00 | 0.00 | 70 | 1008.7 |
| 20260504005643 | 0 | 0.0 | 0.0 | 0.00 | 0.00 | 0.00 | 1008.8 | ||
| 20260504005140 | 0 | 0.0 | 0.0 | 0.00 | 0.00 | 0.00 | 1008.5 | ||
| 20260504004638 | 0 | 0.0 | 0.0 | 0.00 | 0.00 | 0.00 | 1008.5 | ||
| 20260504004135 | 0 | 0.0 | 0.0 | 0.00 | 0.00 | 0.00 | 1008.6 | ||
| 20260504003631 | 0 | 0.0 | 0.0 | 0.00 | 0.00 | 0.00 | 1008.5 | ||
| 20260504003128 | 0 | 0.0 | 0.0 | 0.00 | 0.00 | 0.00 | 1008.4 | ||
| 20260504002624 | 0 | 0.0 | 0.0 | 0.00 | 0.00 | 0.00 | 1008.4 | ||
| 20260504002122 | 44 | 176 | 0.0 | 0.0 | 0.00 | 0.00 | 0.00 | 60 | 1008.4 |
| 20260504001620 | 44 | 176 | 0.0 | 0.0 | 0.00 | 0.00 | 0.00 | 60 | 1008.3 |
| 20260504001115 | 0 | 0.0 | 0.0 | 0.00 | 0.00 | 0.00 | 1008.4 | ||
| 20260504000613 | 0 | 0.0 | 0.0 | 0.00 | 0.00 | 0.00 | 1008.1 | ||
| 20260504000110 | 0 | 0.0 | 0.0 | 0.00 | 0.00 | 0.00 | 1008.0 | ||
| 20260503235609 | 0 | 0.0 | 0.0 | 0.00 | 0.00 | 0.00 | 1008.0 | ||
| 20260503235105 | 0 | 0.0 | 0.0 | 0.00 | 0.00 | 0.00 | 1008.0 | ||
| 20260503234603 | 47 | 90 | 0.9 | 0.9 | 0.00 | 0.00 | 0.00 | 51 | 1008.1 |
| 20260503234101 | 47 | 90 | 0.9 | 0.9 | 0.00 | 0.00 | 0.00 | 51 | 1008.0 |
| 20260503233557 | 48 | 301 | 0.0 | 0.0 | 0.00 | 0.00 | 0.00 | 51 | 1008.0 |
| 20260503233053 | 47 | 158 | 0.0 | 0.0 | 0.00 | 0.00 | 0.00 | 50 | 1007.9 |
| 20260503232550 | 48 | 154 | 0.0 | 0.0 | 0.00 | 0.00 | 0.00 | 49 | 1007.8 |
| 20260503232047 | 48 | 154 | 0.0 | 0.0 | 0.00 | 0.00 | 0.00 | 49 | 1008.1 |
| 20260503231545 | 49 | 241 | 0.9 | 0.9 | 0.00 | 0.00 | 0.00 | 47 | 1007.8 |
| 20260503231042 | 49 | 198 | 0.0 | 0.0 | 0.00 | 0.00 | 0.00 | 48 | 1007.8 |
| 20260503230538 | 49 | 295 | 0.9 | 1.7 | 0.00 | 0.00 | 0.00 | 47 | 1007.7 |
| 20260503230036 | 49 | 241 | 0.0 | 1.7 | 0.00 | 0.00 | 0.00 | 46 | 1007.7 |
| 20260503225533 | 49 | 346 | 0.0 | 0.9 | 0.00 | 0.00 | 0.00 | 47 | 1007.6 |
| 20260503225027 | 50 | 56 | 0.0 | 0.0 | 0.00 | 0.00 | 0.00 | 45 | 1007.6 |
| 20260503224526 | 50 | 309 | 0.9 | 0.9 | 0.00 | 0.00 | 0.00 | 47 | 1007.5 |
| 20260503224023 | 49 | 330 | 0.9 | 1.7 | 0.00 | 0.00 | 0.00 | 45 | 1007.4 |
| 20260503223521 | 50 | 338 | 0.0 | 2.6 | 0.00 | 0.00 | 0.00 | 46 | 1007.7 |
| 20260503223016 | 50 | 283 | 1.7 | 2.6 | 0.00 | 0.00 | 0.00 | 44 | 1007.4 |
| 20260503222515 | 50 | 328 | 0.9 | 3.5 | 0.00 | 0.00 | 0.00 | 44 | 1007.6 |
| 20260503222012 | 50 | 91 | 0.9 | 5.2 | 0.00 | 0.00 | 0.00 | 44 | 1007.2 |
| 20260503221510 | 50 | 119 | 0.0 | 3.5 | 0.00 | 0.00 | 0.00 | 43 | 1007.4 |
| 20260503221008 | 50 | 76 | 0.0 | 0.9 | 0.00 | 0.00 | 0.00 | 46 | 1007.4 |
| 20260503220503 | 50 | 278 | 0.9 | 0.9 | 0.00 | 0.00 | 0.00 | 43 | 1007.3 |
| 20260503220000 | 50 | 308 | 0.9 | 1.7 | 0.00 | 0.00 | 0.00 | 43 | 1007.5 |
| 20260503215457 | 50 | 189 | 0.0 | 2.6 | 0.00 | 0.00 | 0.00 | 43 | 1007.3 |
| 20260503214954 | 50 | 10 | 1.7 | 2.6 | 0.00 | 0.00 | 0.00 | 43 | 1007.3 |
| 20260503214453 | 50 | 169 | 1.7 | 7.8 | 0.00 | 0.00 | 0.00 | 44 | 1007.3 |
| 20260503213949 | 50 | 270 | 0.0 | 2.6 | 0.00 | 0.00 | 0.00 | 45 | 1007.2 |
| 20260503213448 | 50 | 349 | 1.7 | 3.5 | 0.00 | 0.00 | 0.00 | 42 | 1007.3 |
| 20260503212943 | 50 | 269 | 1.7 | 2.6 | 0.00 | 0.00 | 0.00 | 43 | 1007.1 |
| 20260503212441 | 51 | 191 | 1.7 | 3.5 | 0.00 | 0.00 | 0.00 | 43 | 1007.2 |
| 20260503211938 | 51 | 303 | 0.9 | 3.5 | 0.00 | 0.00 | 0.00 | 44 | 1007.0 |
| 20260503211435 | 51 | 316 | 0.9 | 5.2 | 0.00 | 0.00 | 0.00 | 41 | 1007.0 |
| 20260503210931 | 51 | 118 | 1.7 | 5.2 | 0.00 | 0.00 | 0.00 | 41 | 1006.9 |
| 20260503210428 | 51 | 320 | 0.0 | 1.7 | 0.00 | 0.00 | 0.00 | 42 | 1006.9 |
| 20260503205922 | 51 | 280 | 2.6 | 2.6 | 0.00 | 0.00 | 0.00 | 41 | 1006.7 |
| 20260503205420 | 51 | 250 | 0.0 | 7.8 | 0.00 | 0.00 | 0.00 | 42 | 1006.8 |
| 20260503204916 | 51 | 267 | 4.3 | 6.1 | 0.00 | 0.00 | 0.00 | 40 | 1006.9 |
| 20260503204414 | 51 | 108 | 0.9 | 2.6 | 0.00 | 0.00 | 0.00 | 41 | 1006.7 |
| 20260503203910 | 51 | 295 | 3.5 | 8.7 | 0.00 | 0.00 | 0.00 | 42 | 1006.6 |
| 20260503203408 | 51 | 328 | 0.0 | 0.9 | 0.00 | 0.00 | 0.00 | 43 | 1006.6 |
| 20260503202904 | 51 | 47 | 0.9 | 6.1 | 0.00 | 0.00 | 0.00 | 42 | 1006.3 |
| 20260503202403 | 51 | 285 | 1.7 | 7.0 | 0.00 | 0.00 | 0.00 | 42 | 1006.6 |
| 20260503201901 | 51 | 287 | 1.7 | 5.2 | 0.00 | 0.00 | 0.00 | 40 | 1006.6 |
| 20260503201357 | 52 | 324 | 1.7 | 2.6 | 0.00 | 0.00 | 0.00 | 42 | 1006.6 |
| 20260503200855 | 52 | 307 | 1.7 | 8.7 | 0.00 | 0.00 | 0.00 | 41 | 1006.5 |
| 20260503200351 | 51 | 13 | 3.5 | 3.5 | 0.00 | 0.00 | 0.00 | 42 | 1006.6 |
| 20260503195848 | 51 | 208 | 2.6 | 3.5 | 0.00 | 0.00 | 0.00 | 39 | 1006.5 |
| 20260503195344 | 51 | 300 | 3.5 | 6.1 | 0.00 | 0.00 | 0.00 | 40 | 1006.6 |
| 20260503194842 | 53 | 301 | 1.7 | 2.6 | 0.00 | 0.00 | 0.00 | 39 | 1006.6 |
| 20260503194338 | 52 | 168 | 0.0 | 6.1 | 0.00 | 0.00 | 0.00 | 41 | 1006.4 |
| 20260503193834 | 51 | 325 | 0.0 | 3.5 | 0.00 | 0.00 | 0.00 | 42 | 1006.4 |
| 20260503193330 | 52 | 292 | 6.1 | 7.0 | 0.00 | 0.00 | 0.00 | 40 | 1006.3 |